Weather History for Fort Leonard Wood, MO

Change the Weather History Date:

Sunday, September 2, 2012

  Actual Average Record
Temperature  
Mean Temperature 74 °F -  
Max Temperature 81 °F 84 °F 104 °F (2000)
Min Temperature 69 °F 65 °F 60 °F (1998)
Cooling Degree Days 10    
Growing Degree Days 24 (Base 50)    
Moisture  
Dew Point 71 °F    
Average Humidity 96    
Maximum Humidity 100    
Minimum Humidity 76    
Precipitation  
Precipitation 0.04 in - - ()
Sea Level Pressure  
Sea Level Pressure 29.86 in    
Wind  
Wind Speed 6 mph (WNW)    
Max Wind Speed 9 mph    
Max Gust Speed -    
Visibility 6 miles    
Events Rain    
Averages and records for this station are not official NWS values.
T = Trace of Precipitation, MM = Missing Value Source: NWS Daily Summary

Daily Weather History Graph

Daily Weather History Graph

Search for Another Location

Airport:

Trip Planner

Search our weather history database for the weather conditions in past years. The results will help you decide how hot, cold, wet, or windy it might be!

Date:

Astronomy

Sep. 02, 2012 Rise Set
Actual Time 6:39 AM CDT 7:35 PM CDT
Civil Twilight 6:13 AM CDT 8:02 PM CDT
Nautical Twilight 5:41 AM CDT 8:33 PM CDT
Astronomical Twilight 5:08 AM CDT 9:06 PM CDT
Moon 8:27 PM CDT (9/2) 8:45 AM CDT (9/2)
Length of Visible Light 13h 49m
Length of Day
12h 55m
Waning Gibbous, 95% of the Moon is Illuminated
Sep 2
Waning Gibbous
Sep 8
Last Quarter
Sep 15
New
Sep 22
First Quarter
Sep 29
Full

Hourly Weather History & Observations

Time (CDT) Temp. Heat Index Dew Point Humidity Pressure Visibility Wind Dir Wind Speed Gust Speed Precip Events Conditions
12:06 AM 71.6 °F - 71.6 °F 100% 29.82 in 3.0 mi West 8.1 mph - N/A Rain Light Rain
12:07 AM 71.6 °F - 71.6 °F 100% 29.82 in 3.0 mi West 6.9 mph - N/A Rain Light Rain
12:24 AM 71.6 °F - 71.6 °F 100% 29.82 in 9.0 mi WNW 8.1 mph - N/A   Light Drizzle
12:26 AM 71.6 °F - 71.6 °F 100% 29.82 in 10.0 mi WNW 8.1 mph - N/A   Overcast
12:29 AM 71.6 °F - 71.6 °F 100% 29.83 in 10.0 mi WNW 9.2 mph - N/A   Light Drizzle
12:42 AM 71.6 °F - 71.6 °F 100% 29.83 in 10.0 mi WNW 8.1 mph - N/A   Overcast
12:55 AM 71.1 °F - 71.1 °F 100% 29.82 in 10.0 mi WNW 9.2 mph - 0.02 in   Overcast
1:55 AM 70.5 °F - 70.5 °F 100% 29.83 in 10.0 mi West 8.1 mph - N/A   Overcast
2:11 AM 69.8 °F - 69.8 °F 100% 29.83 in 10.0 mi Variable 5.8 mph - N/A   Overcast
2:55 AM 70.2 °F - 70.2 °F 100% 29.82 in 4.0 mi Variable 6.9 mph - N/A   Overcast
3:14 AM 69.8 °F - 69.8 °F 100% 29.82 in 5.0 mi West 8.1 mph - N/A   Overcast
3:40 AM 69.8 °F - 69.8 °F 100% 29.83 in 5.0 mi Variable 5.8 mph - N/A   Overcast
3:45 AM 69.8 °F - 69.8 °F 100% 29.82 in 4.0 mi West 9.2 mph - N/A   Light Drizzle
3:55 AM 70.0 °F - 70.0 °F 100% 29.82 in 4.0 mi West 9.2 mph - 0.00 in   Light Drizzle
3:56 AM 69.8 °F - 69.8 °F 100% 29.82 in 4.0 mi West 8.1 mph - N/A   Light Drizzle
4:44 AM 69.8 °F - 69.8 °F 100% 29.82 in 7.0 mi WNW 6.9 mph - N/A   Overcast
4:55 AM 70.0 °F - 70.0 °F 100% 29.83 in 6.0 mi Variable 5.8 mph - 0.01 in   Overcast
5:31 AM 69.8 °F - 69.8 °F 100% 29.83 in 5.0 mi Variable 5.8 mph - N/A   Light Drizzle
5:41 AM 69.8 °F - 69.8 °F 100% 29.83 in 4.0 mi Variable 6.9 mph - N/A   Overcast
5:52 AM 69.8 °F - 69.8 °F 100% 29.83 in 4.0 mi Variable 4.6 mph - N/A   Overcast
5:55 AM 69.8 °F - 69.8 °F 100% 29.83 in 4.0 mi West 5.8 mph - 0.00 in   Overcast
6:14 AM 69.8 °F - 69.8 °F 100% 29.83 in 2.5 mi WNW 8.1 mph - N/A   Overcast
6:27 AM 69.8 °F - 69.8 °F 100% 29.84 in 3.0 mi West 9.2 mph - N/A   Overcast
6:45 AM 69.8 °F - 69.8 °F 100% 29.85 in 4.0 mi WNW 4.6 mph - N/A   Light Drizzle
6:49 AM 69.8 °F - 69.8 °F 100% 29.85 in 4.0 mi WNW 5.8 mph - N/A   Overcast
6:55 AM 69.3 °F - 69.3 °F 100% 29.85 in 4.0 mi Variable 5.8 mph - 0.00 in   Overcast
7:22 AM 69.8 °F - 69.8 °F 100% 29.86 in 8.0 mi Variable 5.8 mph - N/A   Overcast
7:28 AM 69.8 °F - 69.8 °F 100% 29.86 in 8.0 mi WNW 6.9 mph - N/A   Overcast
7:55 AM 69.1 °F - 69.1 °F 100% 29.87 in 9.0 mi WNW 8.1 mph - N/A   Overcast
8:55 AM 69.1 °F - 69.1 °F 100% 29.88 in 8.0 mi WNW 6.9 mph - N/A   Overcast
9:09 AM 69.8 °F - 69.8 °F 100% 29.88 in 7.0 mi WNW 3.5 mph - N/A   Overcast
9:37 AM 69.8 °F - 69.8 °F 100% 29.89 in 7.0 mi West 5.8 mph - N/A   Light Drizzle
9:54 AM 69.8 °F - 69.8 °F 100% 29.89 in 4.0 mi West 5.8 mph - N/A   Light Drizzle
9:55 AM 69.1 °F - 69.1 °F 100% 29.89 in 3.0 mi Variable 3.5 mph - 0.00 in   Light Drizzle
10:09 AM 69.8 °F - 69.8 °F 100% 29.89 in 5.0 mi WNW 5.8 mph - N/A   Overcast
10:19 AM 69.8 °F - 69.8 °F 100% 29.89 in 7.0 mi Variable 5.8 mph - N/A   Overcast
10:21 AM 69.8 °F - 69.8 °F 100% 29.89 in 8.0 mi Variable 6.9 mph - N/A   Overcast
10:28 AM 69.8 °F - 69.8 °F 100% 29.90 in 10.0 mi West 5.8 mph - N/A   Overcast
10:38 AM 69.8 °F - 69.8 °F 100% 29.90 in 10.0 mi Variable 5.8 mph - N/A   Overcast
10:51 AM 69.8 °F - 69.8 °F 100% 29.91 in 10.0 mi WNW 9.2 mph - N/A   Overcast
10:55 AM 69.3 °F - 69.3 °F 100% 29.91 in 10.0 mi WNW 5.8 mph - 0.00 in   Overcast
11:50 AM 71.6 °F - 71.6 °F 100% 29.90 in 10.0 mi Variable 5.8 mph - N/A   Overcast
11:55 AM 72.1 °F - 71.8 °F 99% 29.90 in 10.0 mi Variable 5.8 mph - 0.01 in   Overcast
11:56 AM 71.6 °F - 71.6 °F 100% 29.90 in 10.0 mi West 8.1 mph - N/A   Overcast
12:17 PM 73.4 °F - 71.6 °F 94% 29.89 in 10.0 mi Variable 4.6 mph - N/A   Overcast
12:55 PM 75.0 °F - 72.0 °F 90% 29.88 in 10.0 mi Variable 3.5 mph - N/A   Overcast
1:18 PM 77.0 °F - 71.6 °F 83% 29.88 in 9.0 mi NW 9.2 mph - N/A   Overcast
1:55 PM 76.8 °F - 72.0 °F 85% 29.88 in 9.0 mi WNW 8.1 mph - N/A   Overcast
2:25 PM 77.0 °F - 71.6 °F 83% 29.87 in 9.0 mi WNW 8.1 mph - N/A   Overcast
2:37 PM 77.0 °F - 71.6 °F 83% 29.86 in 10.0 mi NW 5.8 mph - N/A   Overcast
2:39 PM 77.0 °F - 71.6 °F 83% 29.86 in 10.0 mi Variable 5.8 mph - N/A   Overcast
2:55 PM 78.1 °F - 72.0 °F 81% 29.86 in 10.0 mi NW 9.2 mph - N/A   Overcast
3:04 PM 78.8 °F - 71.6 °F 78% 29.86 in 9.0 mi Variable 5.8 mph - N/A   Overcast
3:05 PM 78.8 °F - 71.6 °F 78% 29.86 in 9.0 mi Variable 5.8 mph - N/A   Overcast
3:53 PM 78.8 °F - 73.4 °F 83% 29.85 in 10.0 mi Variable 5.8 mph - N/A   Overcast
3:55 PM 79.2 °F - 72.7 °F 80% 29.85 in 9.0 mi Variable 5.8 mph - N/A   Overcast
3:57 PM 78.8 °F - 73.4 °F 83% 29.85 in 9.0 mi NW 6.9 mph - N/A   Overcast
4:55 PM 80.6 °F 84.9 °F 72.5 °F 76% 29.85 in 10.0 mi NNW 5.8 mph - N/A   Mostly Cloudy
5:55 PM 79.3 °F - 72.5 °F 79% 29.85 in 10.0 mi North 4.6 mph - N/A   Overcast
6:55 PM 77.7 °F - 72.9 °F 85% 29.85 in 10.0 mi Variable 3.5 mph - N/A   Mostly Cloudy
7:49 PM 75.2 °F - 73.4 °F 94% 29.86 in 2.5 mi Calm Calm - N/A   Mostly Cloudy
7:52 PM 75.2 °F - 73.4 °F 94% 29.86 in 1.8 mi Calm Calm - N/A   Scattered Clouds
7:53 PM 73.4 °F - 73.4 °F 100% 29.86 in 1.5 mi Calm Calm - N/A   Scattered Clouds
7:54 PM 73.4 °F - 73.4 °F 100% 29.86 in 1.2 mi Calm Calm - N/A   Scattered Clouds
7:55 PM 73.9 °F - 73.4 °F 98% 29.86 in 1.2 mi Calm Calm - N/A   Scattered Clouds
7:57 PM 73.4 °F - 73.4 °F 100% 29.86 in 1.0 mi Calm Calm - N/A   Scattered Clouds
8:01 PM 73.4 °F - 73.4 °F 100% 29.86 in 1.2 mi Calm Calm - N/A   Partly Cloudy
8:05 PM 73.4 °F - 73.4 °F 100% 29.86 in 1.5 mi Calm Calm - N/A   Partly Cloudy
8:20 PM 71.6 °F - 71.6 °F 100% 29.87 in 1.8 mi Calm Calm - N/A   Clear
8:26 PM 71.6 °F - 71.6 °F 100% 29.87 in 1.5 mi Calm Calm - N/A   Clear
8:34 PM 71.6 °F - 71.6 °F 100% 29.87 in 1.2 mi West 3.5 mph - N/A   Clear
8:46 PM 71.6 °F - 71.6 °F 100% 29.87 in 1.5 mi West 3.5 mph - N/A   Clear
8:55 PM 71.2 °F - 71.2 °F 100% 29.87 in 1.5 mi West 3.5 mph - N/A   Clear
9:12 PM 71.6 °F - 71.6 °F 100% 29.88 in 1.8 mi West 3.5 mph - N/A   Clear
9:15 PM 71.6 °F - 71.6 °F 100% 29.88 in 2.0 mi Calm Calm - N/A   Clear
9:25 PM 71.6 °F - 71.6 °F 100% 29.88 in 1.8 mi WNW 3.5 mph - N/A   Clear
9:41 PM 71.6 °F - 71.6 °F 100% 29.88 in 2.0 mi WNW 3.5 mph - N/A   Clear
9:48 PM 71.6 °F - 71.6 °F 100% 29.88 in 3.0 mi WNW 3.5 mph - N/A   Clear
9:55 PM 71.8 °F - 71.8 °F 100% 29.88 in 6.0 mi NW 3.5 mph - N/A   Clear
10:55 PM 71.2 °F - 71.2 °F 100% 29.88 in 10.0 mi WNW 3.5 mph - N/A   Clear
11:55 PM 70.5 °F - 70.5 °F 100% 29.88 in 10.0 mi Calm Calm - N/A   Clear